Rutherfordton, NC

4:28 AM EST on November 18, 2017 (GMT -0500)
Rutherford County-Marchman

Weather History for KFQD - January, 2013

Change the Weather History Date:

Tuesday, January 29, 2013

  Actual Average (KAVL) Record (KAVL)
Temperature  
Mean Temperature 52 °F -  
Max Temperature 70 °F 49 °F 76 °F (2002)
Min Temperature 34 °F 24 °F -1 °F (1897)
Degree Days  
Heating Degree Days 14    
Growing Degree Days 2 (Base 50)    
Moisture  
Dew Point 48 °F    
Average Humidity 84    
Maximum Humidity 100    
Minimum Humidity 59    
Precipitation  
Precipitation 0.01 in - - ()
Sea Level Pressure  
Sea Level Pressure 30.15 in    
Wind  
Wind Speed 2 mph (South)    
Max Wind Speed 16 mph    
Max Gust Speed 23 mph    
Visibility 7 miles    
Events Fog , Rain    
Averages and records for this station are not official NWS values.
T = Trace of Precipitation, MM = Missing Value Source: NWS Daily Summary

Daily Weather History Graph

Daily Weather History Graph

Search for Another Location

Airport or City:

Trip Planner

Search our weather history database for the weather conditions in past years. The results will help you decide how hot, cold, wet, or windy it might be!

Date:

Astronomy

Jan. 29, 2013 Rise Set
Actual Time 7:29 AM EST 5:52 PM EST
Civil Twilight 7:02 AM EST 6:19 PM EST
Nautical Twilight 6:31 AM EST 6:50 PM EST
Astronomical Twilight 6:01 AM EST 7:20 PM EST
Moon 8:39 PM EST (1/29) 8:32 AM EST (1/29)
Length of Visible Light 11h 17m
Length of Day
10h 23m
Waning Gibbous, 94% of the Moon is Illuminated
Jan 29
Waning Gibbous
Feb 3
Last Quarter
Feb 10
New
Feb 17
First Quarter
Feb 25
Full

Hourly Weather History & Observations

Time (EST) Temp. Dew Point Humidity Pressure Visibility Wind Dir Wind Speed Gust Speed Precip Events Conditions
12:15 AM 42.1 °F 40.8 °F 95% 30.25 in 5.0 mi Calm Calm - N/A   Scattered Clouds
12:35 AM 42.3 °F 41.0 °F 95% 30.25 in 5.0 mi Calm Calm - N/A   Clear
12:55 AM 41.9 °F 41.4 °F 98% 30.24 in 4.0 mi Calm Calm - N/A   Clear
1:15 AM 42.3 °F 41.5 °F 97% 30.24 in 4.0 mi Calm Calm - N/A   Clear
1:35 AM 40.6 °F 39.9 °F 97% 30.24 in 2.5 mi Calm Calm - N/A   Mostly Cloudy
1:55 AM 41.9 °F 41.4 °F 98% 30.23 in 3.0 mi Calm Calm - N/A   Mostly Cloudy
2:15 AM 39.4 °F 38.8 °F 98% 30.23 in 1.8 mi Calm Calm - N/A   Mostly Cloudy
2:35 AM 40.6 °F 40.3 °F 99% 30.23 in 3.0 mi Calm Calm - N/A   Scattered Clouds
2:55 AM 39.9 °F 39.4 °F 98% 30.23 in 2.0 mi Calm Calm - N/A   Scattered Clouds
3:15 AM 38.5 °F 38.3 °F 99% 30.23 in 1.2 mi Calm Calm - N/A   Scattered Clouds
3:35 AM 38.7 °F 38.7 °F 100% 30.22 in 1.0 mi Calm Calm - N/A   Mostly Cloudy
3:55 AM 40.1 °F 39.9 °F 99% 30.21 in 3.0 mi Calm Calm - N/A   Clear
4:15 AM 36.9 °F 36.9 °F 100% 30.21 in 0.8 mi Calm Calm - N/A   Mostly Cloudy
4:35 AM 38.1 °F 38.1 °F 100% 30.21 in 1.5 mi Calm Calm - N/A   Scattered Clouds
4:55 AM 37.6 °F 37.6 °F 100% 30.21 in 1.8 mi Calm Calm - N/A   Mostly Cloudy
5:15 AM 37.0 °F 36.9 °F 99% 30.21 in 2.0 mi Calm Calm - N/A   Overcast
5:35 AM 36.7 °F 36.7 °F 100% 30.20 in 0.5 mi Calm Calm - N/A Fog Fog
6:15 AM 36.7 °F 36.7 °F 100% 30.19 in 0.5 mi Calm Calm - N/A Fog Fog
6:35 AM 35.6 °F 35.6 °F 100% 30.19 in 0.2 mi Calm Calm - N/A Fog Fog
6:55 AM 35.2 °F 35.2 °F 100% 30.20 in 0.2 mi Calm Calm - N/A Fog Fog
7:15 AM 35.2 °F 35.2 °F 100% 30.20 in 0.5 mi Calm Calm - N/A Fog Fog
7:35 AM 34.2 °F 34.2 °F 100% 30.21 in 0.2 mi Calm Calm - N/A Fog Fog
7:55 AM 34.9 °F 34.9 °F 100% 30.21 in 0.8 mi Calm Calm - N/A   Overcast
8:15 AM 35.6 °F 35.6 °F 100% 30.21 in 0.2 mi Calm Calm - N/A Fog Fog
8:35 AM 38.8 °F 38.8 °F 100% 30.21 in 0.5 mi Calm Calm - N/A Fog Fog
8:55 AM 40.1 °F 40.1 °F 100% 30.21 in 1.0 mi Calm Calm - N/A   Mist
9:15 AM 44.8 °F 44.2 °F 98% 30.21 in 4.0 mi Calm Calm - N/A   Clear
9:35 AM 46.6 °F 44.4 °F 92% 30.21 in 5.0 mi Calm Calm - N/A   Clear
9:55 AM 49.8 °F 45.5 °F 85% 30.21 in 7.0 mi Calm Calm - N/A   Clear
10:15 AM 51.6 °F 45.7 °F 80% 30.22 in 7.0 mi Calm Calm - N/A   Clear
10:35 AM 54.1 °F 45.1 °F 72% 30.21 in 10.0 mi Calm Calm - N/A   Clear
10:55 AM 55.0 °F 45.7 °F 71% 30.21 in 10.0 mi SE 3.5 mph - N/A   Clear
11:15 AM 58.5 °F 47.8 °F 68% 30.20 in 10.0 mi SE 3.5 mph - N/A   Clear
11:35 AM 60.8 °F 49.6 °F 67% 30.19 in 10.0 mi South 5.8 mph - N/A   Clear
11:55 AM 64.8 °F 51.8 °F 63% 30.17 in 10.0 mi South 3.5 mph - N/A   Clear
12:15 PM 67.8 °F 53.6 °F 60% 30.16 in 10.0 mi SW 5.8 mph - N/A   Clear
12:35 PM 69.4 °F 54.3 °F 59% 30.15 in 10.0 mi SSW 10.4 mph 21.9 mph N/A   Clear
12:55 PM 69.6 °F 55.0 °F 60% 30.14 in 10.0 mi SSW 10.4 mph 19.6 mph N/A   Mostly Cloudy
1:15 PM 69.8 °F 55.9 °F 61% 30.12 in 10.0 mi South 10.4 mph 18.4 mph N/A   Mostly Cloudy
1:35 PM 68.4 °F 55.6 °F 64% 30.12 in 10.0 mi SSW 8.1 mph 18.4 mph N/A   Mostly Cloudy
1:55 PM 67.5 °F 55.8 °F 66% 30.11 in 10.0 mi SSW 9.2 mph 19.6 mph N/A   Overcast
2:15 PM 69.3 °F 56.1 °F 63% 30.12 in 10.0 mi SSW 9.2 mph 19.6 mph N/A   Overcast
2:35 PM 67.1 °F 56.1 °F 68% 30.11 in 10.0 mi SSW 9.2 mph 21.9 mph N/A   Overcast
2:55 PM 68.0 °F 56.3 °F 66% 30.11 in 10.0 mi South 13.8 mph 21.9 mph N/A   Overcast
3:15 PM 68.0 °F 56.7 °F 67% 30.10 in 10.0 mi South 13.8 mph 23.0 mph N/A   Overcast
3:35 PM 67.6 °F 56.7 °F 68% 30.10 in 10.0 mi South 16.1 mph 21.9 mph N/A   Overcast
3:55 PM 68.5 °F 56.8 °F 66% 30.10 in 10.0 mi South 10.4 mph 18.4 mph N/A   Overcast
4:15 PM 68.4 °F 57.0 °F 67% 30.09 in 10.0 mi South 8.1 mph - N/A   Mostly Cloudy
4:35 PM 67.1 °F 56.5 °F 69% 30.09 in 10.0 mi SSW 9.2 mph - N/A   Mostly Cloudy
4:55 PM 66.6 °F 56.7 °F 70% 30.09 in 10.0 mi SSW 9.2 mph - N/A   Mostly Cloudy
5:15 PM 66.0 °F 56.5 °F 71% 30.09 in 10.0 mi SSW 6.9 mph - N/A   Mostly Cloudy
5:35 PM 65.7 °F 56.3 °F 72% 30.09 in 10.0 mi SSW 5.8 mph - N/A   Overcast
5:55 PM 64.9 °F 56.3 °F 74% 30.09 in 10.0 mi South 5.8 mph - N/A   Overcast
6:15 PM 64.9 °F 56.3 °F 74% 30.09 in 10.0 mi SSW 5.8 mph - N/A   Overcast
6:35 PM 64.4 °F 56.3 °F 75% 30.09 in 10.0 mi SSW 5.8 mph - N/A   Overcast
6:55 PM 63.7 °F 56.3 °F 77% 30.09 in 10.0 mi South 4.6 mph - N/A   Overcast
7:15 PM 64.0 °F 56.3 °F 76% 30.08 in 10.0 mi Calm Calm - N/A   Overcast
7:35 PM 63.5 °F 56.3 °F 77% 30.08 in 10.0 mi Calm Calm - N/A   Overcast
7:55 PM 63.3 °F 56.3 °F 78% 30.08 in 10.0 mi SSE 3.5 mph - N/A   Overcast
8:15 PM 63.0 °F 56.5 °F 79% 30.08 in 10.0 mi Calm Calm - N/A   Overcast
8:35 PM 62.8 °F 56.5 °F 80% 30.07 in 10.0 mi Calm Calm - N/A Rain Light Rain
8:55 PM 62.6 °F 56.7 °F 81% 30.08 in 10.0 mi Calm Calm - N/A   Overcast
9:15 PM 61.9 °F 56.5 °F 82% 30.08 in 10.0 mi Calm Calm - N/A   Overcast
9:35 PM 61.3 °F 56.7 °F 85% 30.07 in 10.0 mi Calm Calm - N/A   Overcast
9:55 PM 61.3 °F 56.7 °F 85% 30.06 in 10.0 mi Calm Calm - N/A   Overcast
10:15 PM 61.0 °F 56.7 °F 86% 30.05 in 10.0 mi SSE 3.5 mph - N/A   Overcast
10:35 PM 61.5 °F 56.7 °F 84% 30.05 in 10.0 mi Calm Calm - N/A   Overcast
10:55 PM 61.7 °F 56.7 °F 84% 30.03 in 10.0 mi SSE 4.6 mph - N/A   Overcast
11:15 PM 60.1 °F 56.3 °F 87% 30.03 in 10.0 mi Calm Calm - N/A Rain Rain
11:35 PM 60.4 °F 57.2 °F 89% 30.03 in 7.0 mi SSE 5.8 mph - 0.01 in Rain Light Rain
11:55 PM 60.1 °F 57.4 °F 91% 30.02 in 10.0 mi Calm Calm - 0.01 in   Overcast